This is the latest recevied weather packets stored in our database for station/object KD2VWU. If no packets are shown the sender has not sent any weather packets the latest 10 day(s).
| Time | Temp. | Humidity | Pressure | Rain* | Wind** | Luminosity | Snow |
|---|---|---|---|---|---|---|---|
| 1778027477 | 20° C | 60% | 1005.9 hPa | 0 mm | - | - | - |
| 1778027173 | 20° C | 61% | 1005.7 hPa | 0 mm | - | - | - |
| 1778026869 | 20° C | 60% | 1005.5 hPa | 0 mm | - | - | - |
| 1778026565 | 20° C | 61% | 1005.7 hPa | 0 mm | - | - | - |
| 1778026263 | 20° C | 62% | 1005.6 hPa | 0 mm | - | - | - |
| 1778025960 | 20° C | 62% | 1005.7 hPa | 0 mm | - | - | - |
| 1778025657 | 20° C | 63% | 1005.7 hPa | 0 mm | - | - | - |
| 1778025355 | 20° C | 62% | 1005.6 hPa | 0 mm | - | - | - |
| 1778025052 | 20° C | 61% | 1005.5 hPa | 0 mm | - | - | - |
| 1778024749 | 20.56° C | 62% | 1005.4 hPa | 0 mm | - | - | - |
| 1778024445 | 20.56° C | 60% | 1005.3 hPa | 0 mm | - | - | - |
| 1778024143 | 20.56° C | 59% | 1005.3 hPa | 0 mm | - | - | - |
| 1778023840 | 21.11° C | 58% | 1005.2 hPa | 0 mm | - | - | - |
| 1778023538 | 21.11° C | 58% | 1005.1 hPa | 0 mm | - | - | - |
| 1778023235 | 21.67° C | 57% | 1005 hPa | 0 mm | - | - | - |
| 1778022932 | 21.67° C | 57% | 1005.1 hPa | 0 mm | - | - | - |
| 1778022631 | 21.67° C | 58% | 1004.9 hPa | 0 mm | - | - | - |
| 1778022328 | 21.11° C | 58% | 1004.9 hPa | 0 mm | - | - | - |
| 1778022024 | 21.11° C | 59% | 1004.8 hPa | 0 mm | - | - | - |
| 1778021721 | 21.67° C | 57% | 1004.6 hPa | 0 mm | - | - | - |
| 1778021417 | 21.67° C | 58% | 1004.8 hPa | 0 mm | - | - | - |
| 1778021114 | 21.67° C | 59% | 1004.6 hPa | 0 mm | - | - | - |
| 1778020811 | 21.67° C | 59% | 1004.7 hPa | 0 mm | - | - | - |
| 1778020509 | 22.22° C | 57% | 1004.5 hPa | 0 mm | - | - | - |
| 1778020205 | 22.22° C | 57% | 1004.5 hPa | 0 mm | - | - | - |
* Rain latest hour (hover to see other rain measurements)
** Current wind speed in m/s (hover to see current wind gust speed)